GW5611 Weather Reports


time (UTC)temp
C
wind
direction
speed
KPH
gust
KPH
rain 1hr
cm
rain 24hr
cm
rain mn
cm
humidity
%
barometer
mb
20260508033745 10 226 3.2 3.2 0.00 0.18 0.18 56 1013.7
20260508033243 10 228 0.0 0.0 0.00 0.18 0.18 55 1014.0
20260508032741 10 231 1.6 3.2 0.00 0.18 0.18 55 1013.7
20260508032238 10 226 1.6 3.2 0.00 0.18 0.18 54 1014.0
20260508031734 10 218 1.6 3.2 0.00 0.18 0.18 54 1013.7
20260508031231 10 225 1.6 1.6 0.00 0.18 0.18 53 1013.3
20260508030727 10 234 4.8 8.0 0.00 0.18 0.18 53 1013.3
20260508030225 10 222 3.2 3.2 0.00 0.18 0.18 54 1013.7
20260508025721 10 228 4.8 4.8 0.00 0.18 0.18 57 1013.3
20260508025218 10 232 0.0 1.6 0.00 0.18 0.18 56 1013.7
20260508024714 10 237 0.0 1.6 0.00 0.18 0.18 56 1013.3
20260508024211 10 230 4.8 4.8 0.00 0.18 0.18 53 1013.3
20260508023707 10 223 0.0 0.0 0.00 0.18 0.18 55 1013.7
20260508023205 10 230 0.0 1.6 0.00 0.18 0.18 57 1013.3
20260508022701 10 228 0.0 1.6 0.00 0.18 0.18 55 1013.7
20260508022158 10 250 1.6 3.2 0.00 0.18 0.18 55 1013.3
20260508021654 10 239 0.0 1.6 0.00 0.18 0.18 54 1012.9
20260508021149 10 237 1.6 1.6 0.00 0.18 0.18 55 1012.9
20260508020648 10 234 1.6 1.6 0.00 0.18 0.18 54 1012.9
20260508020145 11 257 1.6 1.6 0.00 0.18 0.18 55 1012.9
20260508015642 11 227 1.6 1.6 0.00 0.18 0.18 53 1012.9
20260508015139 11 229 0.0 1.6 0.00 0.18 0.18 53 1012.5
20260508014636 10 220 0.0 0.0 0.00 0.18 0.18 54 1012.9
20260508014132 11 238 0.0 1.6 0.00 0.18 0.18 55 1012.5
20260508013628 11 192 0.0 1.6 0.00 0.18 0.18 56 1012.5
20260508013125 11 213 0.0 1.6 0.00 0.18 0.18 56 1012.5
20260508012623 11 222 0.0 0.0 0.00 0.18 0.18 54 1012.5
20260508012119 11 225 0.0 0.0 0.00 0.18 0.18 55 1012.2
20260508011618 11 224 0.0 0.0 0.00 0.18 0.18 55 1012.2
20260508011115 11 222 0.0 1.6 0.00 0.18 0.18 54 1012.2
20260508010611 11 227 3.2 3.2 0.00 0.18 0.18 54 1012.2
20260508010110 11 222 0.0 0.0 0.00 0.18 0.18 55 1011.9
20260508005606 12 213 0.0 0.0 0.00 0.18 0.18 53 1011.9
20260508005102 12 217 1.6 3.2 0.00 0.18 0.18 53 1011.9
20260508004558 12 214 0.0 0.0 0.00 0.18 0.18 52 1011.9
20260508004055 12 187 6.4 9.7 0.00 0.18 0.18 53 1011.5
20260508003552 12 222 0.0 1.6 0.00 0.18 0.18 51 1011.5
20260508003049 13 225 1.6 1.6 0.00 0.18 0.18 52 1011.5
20260508002545 13 221 3.2 3.2 0.00 0.18 0.18 53 1011.5
20260508002043 13 224 1.6 1.6 0.00 0.18 0.18 53 1011.5
20260508001538 13 221 3.2 4.8 0.00 0.18 0.18 54 1011.5
20260508001035 13 241 4.8 4.8 0.00 0.18 0.18 55 1011.5
20260508000531 13 220 0.0 0.0 0.00 0.18 0.18 58 1011.1
20260508000029 13 221 3.2 4.8 0.00 0.18 0.18 57 1011.1
20260507235525 13 252 6.4 8.0 0.00 0.18 0.18 62 1010.7
20260507235022 13 215 1.6 3.2 0.00 0.18 0.18 70 1010.7
20260507234518 13 221 0.0 0.0 0.00 0.18 0.18 75 1010.7
20260507234015 14 208 1.6 1.6 0.00 0.18 0.18 74 1010.7
20260507233512 14 228 0.0 0.0 0.00 0.18 0.18 76 1010.7
20260507233011 13 213 0.0 1.6 0.00 0.18 0.18 77 1010.4
20260507232506 13 216 1.6 3.2 0.00 0.18 0.18 78 1010.4
20260507232004 14 222 0.0 0.0 0.00 0.18 0.18 78 1010.4
20260507231500 15 218 4.8 4.8 0.00 0.18 0.18 76 1010.1
20260507230957 15 211 3.2 3.2 0.00 0.18 0.18 75 1010.1
20260507230454 16 211 3.2 3.2 0.00 0.18 0.18 74 1010.1
20260507225949 15 202 1.6 1.6 0.00 0.18 0.18 76 1010.1
20260507225446 15 212 4.8 4.8 0.00 0.18 0.18 76 1010.1
20260507224942 15 197 3.2 4.8 0.00 0.18 0.18 77 1010.1
20260507224438 15 216 3.2 4.8 0.00 0.18 0.18 78 1009.7
20260507223935 15 177 8.0 9.7 0.00 0.18 0.18 78 1010.1
20260507223431 14 206 4.8 8.0 0.00 0.18 0.18 80 1010.1
20260507222928 14 208 4.8 4.8 0.00 0.18 0.18 79 1009.7
20260507222425 14 225 4.8 4.8 0.00 0.18 0.18 79 1009.4
20260507221921 15 232 6.4 9.7 0.00 0.18 0.18 77 1009.4
20260507221418 15 217 1.6 3.2 0.00 0.18 0.18 77 1009.4
20260507220914 15 196 11.3 14.5 0.00 0.18 0.18 75 1009.4
20260507220412 15 168 6.4 9.7 0.00 0.18 0.18 75 1009.4
20260507215908 16 177 4.8 9.7 0.00 0.18 0.18 74 1009.4
20260507215405 16 197 4.8 4.8 0.00 0.18 0.18 75 1009.4
20260507214902 16 213 9.7 12.9 0.00 0.18 0.18 75 1009.4
20260507214400 15 207 4.8 4.8 0.00 0.18 0.18 76 1009.4
20260507213855 15 213 6.4 9.7 0.00 0.18 0.18 76 1009.4
20260507213352 15 203 8.0 9.7 0.00 0.18 0.18 76 1009.4
20260507212849 15 213 11.3 12.9 0.00 0.18 0.18 76 1009.0
20260507212345 16 200 8.0 9.7 0.00 0.18 0.18 75 1009.4
20260507211842 15 173 6.4 8.0 0.00 0.18 0.18 77 1009.4
20260507211339 16 168 8.0 11.3 0.00 0.18 0.18 74 1009.4
20260507210835 16 192 9.7 11.3 0.00 0.18 0.18 76 1009.4
20260507210332 15 209 8.0 12.9 0.00 0.18 0.18 76 1009.4
20260507205829 15 177 9.7 11.3 0.00 0.18 0.18 77 1009.4
20260507205326 15 211 4.8 4.8 0.00 0.18 0.18 77 1009.4
20260507204822 15 194 1.6 1.6 0.00 0.18 0.18 77 1009.4
20260507204319 15 205 8.0 11.3 0.00 0.18 0.18 76 1009.4
20260507203817 15 204 4.8 8.0 0.00 0.18 0.18 76 1009.4
20260507203315 15 211 3.2 3.2 0.00 0.18 0.18 77 1009.4
20260507202811 15 209 4.8 8.0 0.00 0.18 0.18 75 1009.4
20260507202307 16 188 6.4 9.7 0.00 0.18 0.18 75 1009.4
20260507201802 16 225 3.2 4.8 0.00 0.18 0.18 76 1009.7
20260507201258 15 209 8.0 9.7 0.00 0.18 0.18 77 1009.4
20260507200755 15 216 0.0 1.6 0.00 0.18 0.18 79 1009.7
20260507200251 14 211 3.2 4.8 0.00 0.18 0.18 79 1010.1
20260507195747 14 218 1.6 1.6 0.00 0.18 0.18 79 1009.7
20260507195245 14 180 6.4 8.0 0.00 0.18 0.18 79 1009.7
20260507194742 13 208 6.4 8.0 0.00 0.18 0.18 80 1010.1
20260507194238 13 218 1.6 1.6 0.00 0.18 0.18 80 1010.1
20260507193734 14 193 4.8 4.8 0.00 0.18 0.18 80 1010.4
20260507193231 13 196 4.8 4.8 0.00 0.18 0.18 79 1010.1
20260507192727 14 195 4.8 8.0 0.00 0.18 0.18 78 1010.4
20260507192224 14 223 3.2 3.2 0.00 0.18 0.18 78 1010.4
20260507191720 14 234 1.6 3.2 0.00 0.18 0.18 80 1010.4
20260507191218 15 181 11.3 14.5 0.00 0.18 0.18 79 1010.4
20260507190714 14 220 1.6 1.6 0.00 0.18 0.18 79 1010.4
20260507190213 14 224 1.6 3.2 0.00 0.18 0.18 82 1010.4
20260507185711 13 194 4.8 4.8 0.00 0.18 0.18 83 1010.7
20260507185208 13 223 6.4 8.0 0.00 0.18 0.18 83 1010.7
20260507184705 13 222 1.6 1.6 0.00 0.18 0.18 83 1010.7
20260507184203 12 216 1.6 1.6 0.00 0.18 0.18 84 1011.1
20260507183659 12 231 3.2 3.2 0.00 0.18 0.18 85 1010.4
20260507183156 12 213 3.2 3.2 0.00 0.18 0.18 85 1010.7
20260507182654 12 214 0.0 0.0 0.00 0.18 0.18 86 1011.1
20260507182149 12 211 3.2 3.2 0.00 0.18 0.18 87 1011.1
20260507181645 11 217 0.0 1.6 0.00 0.18 0.18 87 1011.1
20260507181142 11 213 3.2 4.8 0.00 0.18 0.18 86 1011.1
20260507180638 12 209 1.6 1.6 0.00 0.18 0.18 88 1011.1
20260507180136 12 213 0.0 1.6 0.00 0.18 0.18 87 1011.1
20260507175631 12 211 3.2 3.2 0.00 0.18 0.18 88 1011.1
20260507175129 11 223 0.0 0.0 0.00 0.18 0.18 88 1011.1
20260507174626 11 212 1.6 1.6 0.00 0.18 0.18 88 1011.1
20260507174124 12 211 0.0 1.6 0.00 0.18 0.18 87 1011.5
20260507173621 12 221 0.0 0.0 0.00 0.18 0.18 88 1011.1
20260507173118 11 208 1.6 1.6 0.00 0.18 0.18 87 1011.1
20260507172614 12 206 0.0 1.6 0.00 0.18 0.18 89 1011.5
20260507172111 11 221 0.0 1.6 0.00 0.18 0.18 88 1011.1
20260507171606 11 223 0.0 1.6 0.00 0.18 0.18 87 1011.5
20260507171103 11 225 0.0 1.6 0.00 0.18 0.18 89 1011.5
20260507170600 11 223 0.0 0.0 0.00 0.18 0.18 89 1011.5
20260507170057 11 217 0.0 0.0 0.13 0.18 0.18 90 1011.9
20260507165553 11 212 0.0 0.0 0.13 0.18 0.18 89 1011.9
20260507165049 11 226 0.0 0.0 0.00 0.15 0.15 89 1011.9
20260507164546 11 220 0.0 0.0 0.00 0.15 0.15 88 1012.2
20260507164043 11 219 0.0 0.0 0.00 0.15 0.15 88 1012.2
20260507163540 11 209 0.0 0.0 0.00 0.15 0.15 89 1011.9
20260507163038 11 226 0.0 0.0 0.00 0.15 0.15 89 1011.9
20260507162532 11 216 0.0 0.0 0.00 0.15 0.15 89 1012.2
20260507162030 11 216 1.6 1.6 0.18 0.15 0.15 89 1012.2
20260507161526 11 224 0.0 0.0 0.18 0.15 0.15 89 1012.5
20260507161023 11 217 0.0 1.6 0.00 0.13 0.13 89 1012.5
20260507160519 11 220 0.0 0.0 0.13 0.13 0.13 89 1012.5
20260507160015 11 223 0.0 0.0 0.13 0.13 0.13 89 1012.5
20260507155510 11 225 0.0 0.0 0.00 0.10 0.10 89 1012.5
20260507155008 11 221 0.0 0.0 0.00 0.10 0.10 89 1012.5
20260507154504 11 220 0.0 0.0 0.00 0.10 0.10 90 1012.9
20260507154002 11 218 0.0 0.0 0.00 0.10 0.10 91 1012.5
20260507153458 10 215 0.0 0.0 0.00 0.10 0.10 89 1012.9
20260507152954 10 223 0.0 1.6 0.00 0.10 0.10 90 1012.9
20260507152450 10 219 0.0 0.0 0.00 0.10 0.10 90 1012.5
20260507151947 10 220 0.0 0.0 0.00 0.10 0.10 90 1012.9
20260507151443 10 225 0.0 1.6 0.00 0.10 0.10 89 1013.3
20260507150940 10 216 0.0 0.0 0.00 0.10 0.10 89 1012.9
20260507150437 10 221 0.0 0.0 0.18 0.10 0.10 89 1012.9
20260507145933 10 220 0.0 0.0 0.18 0.10 0.10 89 1012.9
20260507145429 10 223 0.0 0.0 0.30 0.08 0.08 88 1012.9
20260507144926 10 215 1.6 1.6 0.18 0.05 0.05 87 1013.3
20260507144423 10 221 0.0 0.0 0.00 0.03 0.03 86 1012.9
20260507143920 10 224 0.0 0.0 0.00 0.03 0.03 87 1012.5
20260507143418 10 223 0.0 0.0 0.00 0.03 0.03 86 1012.5
20260507142914 10 227 0.0 0.0 0.00 0.03 0.03 86 1012.9
20260507142410 10 221 0.0 1.6 0.00 0.03 0.03 87 1013.3
20260507141907 10 222 0.0 0.0 0.00 0.03 0.03 87 1012.9
20260507141403 10 223 0.0 0.0 0.00 0.03 0.03 87 1012.9
20260507140900 10 223 1.6 1.6 0.00 0.03 0.03 87 1012.9
20260507140357 10 220 0.0 0.0 0.00 0.03 0.03 87 1013.3
20260507135855 10 222 0.0 0.0 0.00 0.03 0.03 87 1013.3
20260507135351 10 219 0.0 0.0 0.00 0.03 0.03 87 1013.3
20260507134849 10 228 0.0 1.6 0.00 0.03 0.03 86 1013.3
20260507134345 10 226 0.0 0.0 0.00 0.03 0.03 87 1013.7
20260507133841 10 223 0.0 1.6 0.00 0.03 0.03 87 1012.9
20260507133336 10 223 0.0 0.0 0.00 0.03 0.03 87 1013.3
20260507132835 10 227 0.0 0.0 0.00 0.03 0.03 87 1012.9
20260507132331 10 224 0.0 0.0 0.00 0.03 0.03 88 1013.3
20260507131829 10 225 0.0 0.0 0.00 0.03 0.03 88 1013.3
20260507131326 10 223 0.0 0.0 0.00 0.03 0.03 88 1013.3
20260507130823 10 219 0.0 0.0 0.00 0.03 0.03 88 1013.3
20260507130320 10 225 0.0 0.0 0.00 0.03 0.03 88 1013.3
20260507125819 10 223 0.0 0.0 0.00 0.03 0.03 88 1013.3
20260507125316 10 225 0.0 0.0 0.00 0.03 0.03 89 1013.3
20260507124813 10 222 0.0 0.0 0.00 0.03 0.03 89 1013.3
20260507124309 10 225 0.0 0.0 0.00 0.03 0.03 89 1013.3
20260507123808 10 230 0.0 0.0 0.00 0.03 0.03 89 1013.3
20260507123305 10 227 0.0 0.0 0.00 0.03 0.03 90 1012.9
20260507122800 10 223 0.0 0.0 0.00 0.03 0.03 90 1013.3
20260507122255 10 228 0.0 0.0 0.00 0.03 0.03 90 1012.9
20260507121752 10 229 0.0 0.0 0.00 0.03 0.03 90 1013.3
20260507121248 10 223 0.0 0.0 0.00 0.03 0.03 90 1013.3
20260507120744 10 225 0.0 0.0 0.00 0.03 0.03 90 1013.3
20260507120241 10 224 0.0 0.0 0.00 0.03 0.03 90 1013.3
20260507115737 10 224 0.0 0.0 0.00 0.03 0.03 91 1013.3
20260507115233 10 232 0.0 0.0 0.00 0.03 0.03 91 1012.9
20260507114728 10 230 0.0 1.6 0.00 0.03 0.03 91 1012.9
20260507114226 10 223 0.0 0.0 0.00 0.03 0.03 91 1013.3
20260507113724 10 225 0.0 0.0 0.00 0.03 0.03 91 1012.9
20260507113220 10 223 0.0 0.0 0.00 0.03 0.03 91 1012.9
20260507112718 10 231 0.0 1.6 0.00 0.03 0.03 91 1012.9
20260507112215 10 207 1.6 1.6 0.00 0.03 0.03 92 1012.9
20260507111712 10 228 1.6 1.6 0.00 0.03 0.03 92 1012.9
20260507111210 10 230 0.0 0.0 0.00 0.03 0.03 92 1012.9
20260507110705 10 232 0.0 0.0 0.00 0.03 0.03 92 1012.5
20260507110202 10 224 0.0 0.0 0.00 0.03 0.03 92 1012.9
20260507105659 10 223 0.0 0.0 0.00 0.03 0.03 92 1012.5
20260507105154 10 227 0.0 0.0 0.00 0.03 0.03 92 1012.5
20260507104652 10 226 0.0 0.0 0.00 0.03 0.03 92 1012.5
20260507104148 10 223 0.0 0.0 0.00 0.03 0.03 92 1012.5
20260507103644 10 227 0.0 0.0 0.00 0.03 0.03 92 1012.2
20260507103141 10 225 0.0 0.0 0.00 0.03 0.03 92 1012.2
20260507102638 10 223 0.0 0.0 0.00 0.03 0.03 92 1012.2
20260507102134 10 211 0.0 0.0 0.00 0.03 0.03 92 1012.2
20260507101630 10 225 0.0 0.0 0.00 0.03 0.03 92 1012.2
20260507101126 10 223 0.0 1.6 0.00 0.03 0.03 92 1011.9
20260507100624 11 228 0.0 0.0 0.00 0.03 0.03 92 1011.9
20260507100122 11 226 0.0 0.0 0.00 0.03 0.03 92 1012.2
20260507095619 11 223 0.0 0.0 0.00 0.03 0.03 92 1012.2
20260507095115 11 227 0.0 0.0 0.00 0.03 0.03 93 1012.2
20260507094611 11 226 0.0 0.0 0.00 0.03 0.03 93 1012.2
20260507094108 11 223 0.0 0.0 0.00 0.03 0.03 92 1012.5
20260507093606 11 225 0.0 0.0 0.00 0.03 0.03 93 1012.2
20260507093105 11 222 0.0 0.0 0.00 0.03 0.03 93 1011.9
20260507092600 11 224 0.0 0.0 0.00 0.03 0.03 92 1011.9
20260507092057 12 224 0.0 0.0 0.00 0.03 0.03 92 1011.9
20260507091554 12 222 0.0 0.0 0.00 0.03 0.03 92 1011.5
20260507091050 12 226 0.0 0.0 0.00 0.03 0.03 92 1011.9
20260507090546 12 223 0.0 0.0 0.00 0.03 0.03 92 1011.9
20260507090044 12 223 0.0 0.0 0.00 0.03 0.03 92 1012.2
20260507085541 12 228 1.6 1.6 0.00 0.03 0.03 92 1012.2
20260507085037 12 223 0.0 0.0 0.00 0.03 0.03 92 1012.2
20260507084533 12 223 0.0 0.0 0.00 0.03 0.03 91 1012.2
20260507084031 12 230 1.6 1.6 0.00 0.03 0.03 91 1012.2
20260507083527 13 225 0.0 0.0 0.00 0.03 0.03 91 1012.2
20260507083024 13 224 0.0 1.6 0.00 0.03 0.03 91 1011.5
20260507082520 13 218 0.0 0.0 0.00 0.03 0.03 90 1011.5
20260507082016 13 221 0.0 0.0 0.00 0.03 0.03 90 1011.5
20260507081513 13 216 0.0 0.0 0.00 0.03 0.03 89 1011.5
20260507081010 13 221 0.0 0.0 0.00 0.03 0.03 89 1011.9
20260507080505 13 221 0.0 0.0 0.00 0.03 0.03 89 1011.9
20260507080001 13 225 0.0 0.0 0.00 0.03 0.03 90 1011.5
20260507075457 13 231 0.0 1.6 0.00 0.03 0.03 91 1011.9
20260507074954 13 223 0.0 0.0 0.00 0.03 0.03 92 1011.9
20260507074451 13 223 0.0 0.0 0.00 0.03 0.03 92 1011.9
20260507073949 13 224 0.0 0.0 0.00 0.03 0.03 92 1011.9
20260507073445 13 224 0.0 0.0 0.00 0.03 0.03 92 1011.5
20260507072942 13 224 0.0 0.0 0.00 0.03 0.03 92 1012.2
20260507072439 13 224 0.0 0.0 0.00 0.03 0.03 92 1011.9
20260507071937 13 235 0.0 0.0 0.00 0.03 0.03 92 1011.5
20260507071434 13 222 0.0 0.0 0.00 0.03 0.03 92 1011.9
20260507070930 13 224 0.0 0.0 0.00 0.03 0.03 92 1011.5
20260507070428 13 213 0.0 0.0 0.00 0.03 0.03 92 1011.1
20260507065924 13 237 0.0 0.0 0.00 0.03 0.03 91 1011.1
20260507065421 13 223 0.0 0.0 0.00 0.03 0.03 91 1011.1
20260507064918 13 226 0.0 0.0 0.00 0.03 0.03 90 1011.5
20260507064416 14 224 0.0 0.0 0.00 0.03 0.03 90 1011.5
20260507063914 14 222 0.0 0.0 0.00 0.03 0.03 90 1011.5
20260507063411 14 220 0.0 0.0 0.00 0.03 0.03 89 1011.1
20260507062909 14 197 0.0 0.0 0.00 0.03 0.03 89 1011.5
20260507062405 15 215 0.0 0.0 0.00 0.03 0.03 88 1011.1
20260507061902 15 216 0.0 0.0 0.00 0.03 0.03 87 1011.1
20260507061400 15 229 3.2 4.8 0.00 0.03 0.03 87 1011.5
20260507060858 15 214 4.8 4.8 0.00 0.03 0.03 86 1011.5
20260507060355 15 226 3.2 4.8 0.00 0.03 0.03 86 1011.5
20260507055852 15 197 4.8 4.8 0.00 0.03 0.03 86 1011.5
20260507055346 15 220 1.6 1.6 0.00 0.03 0.03 86 1011.5
20260507054844 15 231 8.0 11.3 0.00 0.03 0.03 87 1011.5
20260507054340 15 228 3.2 3.2 0.00 0.03 0.03 88 1011.5
20260507053837 15 186 6.4 8.0 0.00 0.03 0.03 89 1011.9
20260507053335 15 231 8.0 11.3 0.00 0.03 0.03 90 1011.9
20260507052833 15 183 6.4 8.0 0.00 0.03 0.03 92 1011.5
20260507052330 15 223 3.2 4.8 0.00 0.03 0.03 93 1011.9
20260507051827 15 221 3.2 4.8 0.00 0.03 0.03 94 1011.9
20260507051325 15 213 1.6 3.2 0.00 0.03 0.03 94 1011.5
20260507050822 15 220 4.8 9.7 0.00 0.03 0.03 95 1011.5
20260507050318 15 215 1.6 3.2 0.00 0.03 0.03 95 1011.1
20260507045815 15 230 6.4 8.0 0.00 0.03 0.03 95 1011.1
20260507045312 15 222 3.2 3.2 0.00 0.03 0.03 94 1011.1
20260507044809 15 249 1.6 1.6 0.00 0.03 0.03 94 1010.7
20260507044305 15 220 0.0 1.6 0.00 0.03 0.03 94 1010.4
20260507043801 15 221 1.6 1.6 0.00 0.03 0.03 94 1010.1
20260507043258 15 197 3.2 3.2 0.13 0.03 0.03 94 1010.1
20260507042754 15 213 0.0 0.0 0.13 0.03 0.03 94 1010.7
20260507042249 16 214 1.6 3.2 0.00 0.00 0.00 94 1011.1
20260507041747 16 217 3.2 4.8 0.00 0.00 0.00 94 1011.1
20260507041244 16 235 1.6 3.2 0.00 0.00 0.00 94 1011.9
20260507040741 16 223 1.6 3.2 0.00 0.00 0.00 94 1011.5
20260507040237 16 232 4.8 8.0 0.00 0.00 0.00 93 1011.5
20260507035733 16 232 1.6 3.2 0.18 0.46 0.46 93 1011.5
20260507035228 16 235 4.8 4.8 0.18 0.46 0.46 93 1011.9
20260507034726 16 253 4.8 4.8 0.00 0.43 0.43 93 1011.5
20260507034223 16 218 4.8 4.8 0.00 0.43 0.43 93 1011.9